• în Republica Moldova
  • Lista ţărilor
  • Pe 7 zile
  • Temperatura apei
  • Hartă satelitară
  • Meteo pe hartă
  • Widget-uri
  • user-avatar
    Intrare

    Meteo pe oră la Kerns

    Astăzi, 17 Noiembrie, Sâmbătă

    Timp Temperatura Precipitaţii Vânt Presiune Umiditate
    00:00 +22°C° 0 mm 3 m/s 759 mmHg 86%
    01:00 +22°C° 0 mm 3 m/s 758 mmHg 88%
    02:00 +22°C° 0 mm 3 m/s 758 mmHg 89%
    03:00 +22°C° 0 mm 3 m/s 758 mmHg 91%
    04:00 +21°C° 0 mm 3 m/s 758 mmHg 93%
    05:00 +24°C° 0 mm 3 m/s 759 mmHg 88%
    06:00 +25°C° 0 mm 3 m/s 759 mmHg 83%
    07:00 +26°C° 0 mm 3 m/s 759 mmHg 79%
    08:00 +28°C° 0 mm 4 m/s 759 mmHg 66%
    09:00 +32°C° 0 mm 4 m/s 759 mmHg 53%
    10:00 +34°C° 0 mm 4 m/s 759 mmHg 40%
    11:00 +35°C° 0 mm 5 m/s 758 mmHg 37%
    12:00 +36°C° 0 mm 5 m/s 758 mmHg 33%
    13:00 +37°C° 0 mm 5 m/s 758 mmHg 30%
    14:00 +36°C° 0 mm 5 m/s 757 mmHg 31%
    15:00 +35°C° 0 mm 5 m/s 757 mmHg 32%
    16:00 +35°C° 0 mm 5 m/s 757 mmHg 33%
    17:00 +32°C° 0 mm 5 m/s 757 mmHg 44%
    18:00 +29°C° 0 mm 4 m/s 757 mmHg 55%
    19:00 +26°C° 0 mm 4 m/s 758 mmHg 65%
    20:00 +25°C° 0 mm 3 m/s 758 mmHg 73%
    21:00 +24°C° 0 mm 3 m/s 758 mmHg 80%
    22:00 +22°C° 0 mm 3 m/s 759 mmHg 88%
    23:00 +22°C° 0 mm 3 m/s 758 mmHg 89%

    Mâine, 18 Noiembrie, Duminică

    Timp Temperatura Precipitaţii Vânt Presiune Umiditate
    00:00 +22°C° 0 mm 3 m/s 758 mmHg 90%
    01:00 +21°C° 0 mm 2 m/s 758 mmHg 91%
    02:00 +21°C° 0 mm 2 m/s 758 mmHg 91%
    03:00 +21°C° 0 mm 2 m/s 757 mmHg 90%
    04:00 +21°C° 0 mm 3 m/s 757 mmHg 90%
    05:00 +22°C° 0 mm 3 m/s 758 mmHg 85%
    06:00 +24°C° 0 mm 3 m/s 758 mmHg 80%
    07:00 +25°C° 0 mm 4 m/s 758 mmHg 75%
    08:00 +28°C° 0 mm 4 m/s 758 mmHg 66%
    09:00 +30°C° 0 mm 4 m/s 758 mmHg 56%
    10:00 +34°C° 0 mm 5 m/s 758 mmHg 47%
    11:00 +34°C° 0 mm 5 m/s 758 mmHg 44%
    12:00 +35°C° 0 mm 5 m/s 758 mmHg 42%
    13:00 +36°C° 0 mm 5 m/s 757 mmHg 39%
    14:00 +35°C° 0 mm 5 m/s 757 mmHg 40%
    15:00 +35°C° 0 mm 5 m/s 756 mmHg 42%
    16:00 +34°C° 0 mm 5 m/s 756 mmHg 44%
    17:00 +32°C° 0 mm 5 m/s 757 mmHg 55%
    18:00 +29°C° 0 mm 4 m/s 757 mmHg 66%
    19:00 +27°C° 0 mm 4 m/s 758 mmHg 78%
    20:00 +26°C° 0 mm 4 m/s 758 mmHg 83%
    21:00 +25°C° 0 mm 4 m/s 759 mmHg 88%
    22:00 +25°C° 0 mm 4 m/s 759 mmHg 93%
    23:00 +23°C° 0 mm 4 m/s 759 mmHg 94%

    Poimâine, 19 Noiembrie, Luni

    Timp Temperatura Precipitaţii Vânt Presiune Umiditate
    00:00 +24°C° 0 mm 3 m/s 758 mmHg 94%
    01:00 +24°C° 0 mm 3 m/s 758 mmHg 94%
    02:00 +24°C° 0 mm 3 m/s 758 mmHg 94%
    03:00 +24°C° 0 mm 3 m/s 757 mmHg 94%
    04:00 +24°C° 0 mm 3 m/s 757 mmHg 94%
    05:00 +25°C° 0 mm 4 m/s 758 mmHg 90%
    06:00 +25°C° 0 mm 4 m/s 758 mmHg 87%
    07:00 +26°C° 0 mm 4 m/s 759 mmHg 83%
    08:00 +28°C° 0 mm 4 m/s 759 mmHg 72%
    09:00 +30°C° 0 mm 4 m/s 759 mmHg 61%
    10:00 +33°C° 0 mm 5 m/s 759 mmHg 50%
    11:00 +34°C° 0 mm 4 m/s 759 mmHg 48%
    12:00 +35°C° 0 mm 4 m/s 758 mmHg 45%
    13:00 +36°C° 0 mm 4 m/s 758 mmHg 43%
    14:00 +35°C° 0.1 mm 4 m/s 757 mmHg 46%
    15:00 +35°C° 0.1 mm 5 m/s 757 mmHg 49%
    16:00 +34°C° 0.1 mm 5 m/s 756 mmHg 51%
    17:00 +32°C° 0 mm 4 m/s 757 mmHg 61%
    18:00 +29°C° 0 mm 4 m/s 757 mmHg 70%
    19:00 +27°C° 0 mm 4 m/s 758 mmHg 80%
    20:00 +26°C° 0 mm 4 m/s 758 mmHg 84%
    21:00 +26°C° 0 mm 4 m/s 759 mmHg 88%
    22:00 +25°C° 0 mm 4 m/s 759 mmHg 93%
    23:00 +25°C° 0.2 mm 4 m/s 759 mmHg 93%

    20 Noiembrie, Marţi

    Timp Temperatura Precipitaţii Vânt Presiune Umiditate
    00:00 +25°C° 0.2 mm 4 m/s 759 mmHg 94%
    01:00 +25°C° 0.2 mm 4 m/s 758 mmHg 95%
    02:00 +25°C° 0.2 mm 4 m/s 758 mmHg 94%
    03:00 +25°C° 0.2 mm 4 m/s 758 mmHg 94%
    04:00 +26°C° 0.2 mm 4 m/s 757 mmHg 94%
    05:00 +26°C° 0 mm 4 m/s 758 mmHg 91%
    06:00 +27°C° 0 mm 4 m/s 758 mmHg 87%
    07:00 +27°C° 0 mm 4 m/s 759 mmHg 83%
    08:00 +29°C° 0 mm 4 m/s 759 mmHg 75%
    09:00 +30°C° 0 mm 5 m/s 759 mmHg 67%
    10:00 +33°C° 0 mm 5 m/s 759 mmHg 58%
    11:00 +34°C° 0 mm 5 m/s 759 mmHg 56%
    12:00 +34°C° 0 mm 5 m/s 758 mmHg 54%
    13:00 +35°C° 0 mm 5 m/s 758 mmHg 52%
    14:00 +34°C° 0 mm 5 m/s 757 mmHg 52%
    15:00 +34°C° 0 mm 5 m/s 757 mmHg 51%
    16:00 +34°C° 0 mm 5 m/s 756 mmHg 51%
    17:00 +32°C° 0 mm 4 m/s 757 mmHg 60%
    18:00 +29°C° 0 mm 4 m/s 757 mmHg 70%
    19:00 +27°C° 0 mm 3 m/s 757 mmHg 79%
    20:00 +26°C° 0 mm 3 m/s 758 mmHg 84%
    21:00 +26°C° 0 mm 3 m/s 758 mmHg 89%
    22:00 +25°C° 0 mm 2 m/s 758 mmHg 94%
    23:00 +25°C° 0 mm 2 m/s 758 mmHg 94%

    21 Noiembrie, Miercuri

    Timp Temperatura Precipitaţii Vânt Presiune Umiditate
    00:00 +25°C° 0 mm 2 m/s 758 mmHg 94%
    01:00 +25°C° 0 mm 2 m/s 757 mmHg 94%
    02:00 +25°C° 0 mm 2 m/s 757 mmHg 94%
    03:00 +25°C° 0 mm 2 m/s 757 mmHg 94%
    04:00 +24°C° 0 mm 2 m/s 757 mmHg 94%
    05:00 +25°C° 0 mm 2 m/s 757 mmHg 91%
    06:00 +26°C° 0 mm 2 m/s 757 mmHg 87%
    07:00 +26°C° 0 mm 2 m/s 758 mmHg 84%
    08:00 +29°C° 0 mm 2 m/s 758 mmHg 72%
    09:00 +31°C° 0 mm 2 m/s 758 mmHg 60%
    10:00 +35°C° 0 mm 3 m/s 758 mmHg 48%
    11:00 +36°C° 0 mm 3 m/s 757 mmHg 44%
    12:00 +37°C° 0 mm 3 m/s 757 mmHg 40%
    13:00 +38°C° 0 mm 3 m/s 756 mmHg 36%
    14:00 +37°C° 0 mm 3 m/s 755 mmHg 38%
    15:00 +37°C° 0 mm 3 m/s 755 mmHg 40%
    16:00 +36°C° 0 mm 3 m/s 754 mmHg 41%
    17:00 +34°C° 0 mm 3 m/s 755 mmHg 51%
    18:00 +30°C° 0 mm 3 m/s 755 mmHg 60%
    19:00 +28°C° 0 mm 3 m/s 756 mmHg 70%
    20:00 +27°C° 0 mm 2 m/s 756 mmHg 74%
    21:00 +27°C° 0 mm 2 m/s 757 mmHg 79%
    22:00 +26°C° 0 mm 2 m/s 757 mmHg 84%
    23:00 +26°C° 0 mm 2 m/s 757 mmHg 83%

    22 Noiembrie, Joi

    Timp Temperatura Precipitaţii Vânt Presiune Umiditate
    00:00 +26°C° 0 mm 2 m/s 757 mmHg 83%
    01:00 +26°C° 0 mm 2 m/s 756 mmHg 82%
    02:00 +26°C° 0 mm 2 m/s 756 mmHg 85%
    03:00 +25°C° 0 mm 2 m/s 756 mmHg 87%
    04:00 +25°C° 0 mm 2 m/s 756 mmHg 89%
    05:00 +26°C° 0 mm 2 m/s 757 mmHg 83%
    06:00 +27°C° 0 mm 1 m/s 757 mmHg 77%
    07:00 +29°C° 0 mm 1 m/s 758 mmHg 71%
    08:00 +31°C° 0 mm 2 m/s 758 mmHg 61%
    09:00 +35°C° 0 mm 2 m/s 757 mmHg 52%
    10:00 +38°C° 0 mm 2 m/s 757 mmHg 43%
    11:00 +39°C° 0 mm 3 m/s 757 mmHg 42%
    12:00 +40°C° 0 mm 4 m/s 756 mmHg 40%
    13:00 +41°C° 0 mm 4 m/s 755 mmHg 39%
    14:00 +40°C° 0.1 mm 4 m/s 755 mmHg 45%
    15:00 +37°C° 0.1 mm 4 m/s 755 mmHg 51%
    16:00 +36°C° 0.1 mm 4 m/s 754 mmHg 57%
    17:00 +34°C° 1.2 mm 4 m/s 755 mmHg 67%
    18:00 +31°C° 1.2 mm 3 m/s 755 mmHg 77%
    19:00 +29°C° 1.2 mm 3 m/s 756 mmHg 87%
    20:00 +29°C° 1.5 mm 3 m/s 756 mmHg 88%
    21:00 +29°C° 1.5 mm 3 m/s 757 mmHg 88%
    22:00 +29°C° 1.5 mm 3 m/s 757 mmHg 88%
    23:00 +28°C° 1.1 mm 3 m/s 757 mmHg 89%
    Arată mai mult